Date,TemperatureHighF,TemperatureAvgF,TemperatureLowF,DewpointHighF,DewpointAvgF,DewpointLowF,HumidityHigh,HumidityAvg,HumidityLow,PressureMaxIn,PressureMinIn,WindSpeedMaxMPH,WindSpeedAvgMPH,GustSpeedMaxMPH,PrecipitationSumIn
2013-1-1,40.6,37.4,28.6,32.7,27.8,14.5,82,68,55,30.08,29.89,18,4,18,0.00
2013-1-2,34.2,28.6,23.4,18.9,16.0,12.9,68,59,47,30.24,30.06,17,3,19,0.00
2013-1-3,33.4,29.1,25.3,21.6,18.6,16.9,74,65,53,30.26,30.13,13,2,15,0.00
2013-1-4,37.9,34.2,28.8,24.8,23.5,21.0,74,65,57,30.15,30.02,27,5,27,0.00
2013-1-5,44.1,35.9,30.7,25.7,23.6,20.8,77,61,46,30.35,30.09,17,3,18,0.00
2013-1-6,47.7,39.4,32.7,34.7,30.2,25.3,94,71,50,30.28,30.02,14,2,14,0.00
2013-1-7,46.8,38.3,27.1,32.7,28.0,23.4,87,68,45,30.45,30.12,16,1,16,0.00
2013-1-8,50.2,37.1,25.7,35.6,30.2,23.2,94,77,55,30.48,30.39,15,1,15,0.00
2013-1-9,50.2,40.7,29.7,41.2,34.8,27.7,94,80,65,30.45,30.18,13,2,13,0.00
2013-1-10,49.8,43.2,36.7,35.2,28.9,26.2,72,58,41,30.60,30.30,15,3,15,0.00
2013-1-11,46.8,41.4,34.9,45.5,36.1,27.0,98,82,66,30.59,30.13,8,1,8,0.58
2013-1-12,50.2,46.5,43.3,47.3,45.2,42.8,98,95,89,30.22,30.12,5,0,6,0.00
2013-1-13,49.8,46.9,44.4,49.5,46.4,44.2,99,98,94,30.20,30.05,5,0,5,0.02
2013-1-14,57.2,50.5,39.9,54.0,44.7,29.1,100,83,47,30.35,29.94,12,2,12,0.07
2013-1-15,39.9,38.1,35.2,37.2,31.8,28.4,93,78,67,30.40,30.25,11,1,11,0.16
2013-1-16,37.8,34.9,33.1,35.6,33.8,31.8,98,96,90,30.26,29.86,11,2,11,0.82
2013-1-17,44.1,40.1,36.9,36.0,31.6,26.8,92,72,59,30.15,29.97,15,3,15,0.00
2013-1-18,36.7,30.3,26.2,27.1,15.3,7.3,72,54,37,30.54,30.04,17,3,18,0.00
2013-1-19,52.5,40.3,26.6,31.3,26.2,14.2,78,58,40,30.47,29.98,18,3,19,0.00
2013-1-20,54.9,43.5,30.7,33.4,25.4,14.2,79,51,24,30.10,29.75,34,6,34,0.00
2013-1-21,32.4,29.3,24.1,19.8,14.3,11.3,69,53,44,30.15,29.90,15,2,15,0.00
2013-1-22,27.3,19.9,14.2,13.1,1.8,-4.4,57,45,34,30.28,29.91,31,9,31,0.00
2013-1-23,20.5,14.9,11.1,6.3,0.7,-5.3,78,53,42,30.32,30.23,24,5,24,0.00
2013-1-24,25.0,17.1,8.8,8.4,3.5,-1.7,89,58,32,30.49,30.19,24,4,27,0.00
2013-1-25,24.3,17.6,12.7,17.2,7.1,-1.1,92,65,44,30.50,30.13,17,2,17,0.00
2013-1-26,28.4,20.4,12.7,13.3,10.6,8.4,93,68,44,30.45,30.11,19,3,19,0.00
2013-1-27,35.4,25.4,15.3,16.2,13.0,9.0,77,60,40,30.59,30.45,16,2,16,0.00
2013-1-28,35.6,30.9,21.9,34.2,27.0,15.4,96,86,70,30.56,30.06,11,1,11,0.02
2013-1-29,55.2,42.9,35.1,45.7,40.2,33.8,96,91,68,30.19,30.06,8,1,8,0.00
2013-1-30,68.5,54.8,42.4,61.3,51.9,41.7,100,91,76,30.12,29.39,25,3,26,0.01
2013-1-31,63.0,45.6,29.7,60.8,33.0,13.3,96,63,42,29.86,29.09,45,12,45,0.87
2013-2-1,31.8,28.4,23.7,21.6,13.6,4.8,83,54,33,30.31,29.86,27,6,31,0.00
2013-2-2,31.1,24.5,18.5,22.5,11.4,7.2,91,58,38,30.36,30.11,16,4,17,0.00
2013-2-3,31.1,26.8,24.3,23.7,21.8,19.4,93,81,66,30.11,29.85,12,1,12,0.00
2013-2-4,30.6,27.1,23.0,23.0,14.2,10.4,82,59,44,30.05,29.88,26,6,26,0.00
2013-2-5,32.5,30.0,26.8,29.5,27.0,22.5,93,89,83,30.03,29.94,6,1,6,0.00
2013-2-6,39.9,33.5,28.8,29.7,24.2,12.4,96,71,49,30.41,29.97,21,3,21,0.01
2013-2-7,33.4,29.3,21.7,25.9,16.4,9.9,74,59,46,30.56,30.36,7,1,7,0.00
2013-2-8,36.5,33.6,29.5,34.0,31.2,25.7,97,91,73,30.36,29.70,20,4,20,0.30
2013-2-9,34.5,28.9,20.7,29.8,18.9,9.3,98,69,40,30.42,29.82,25,4,25,0.00
2013-2-10,38.8,26.6,12.7,23.4,14.7,7.3,89,63,28,30.54,30.38,6,1,6,0.09
2013-2-11,44.4,37.3,30.2,44.2,35.5,23.4,99,93,75,30.39,29.71,9,0,9,0.16
2013-2-12,45.1,40.9,33.3,41.0,29.0,25.5,98,63,51,30.03,29.79,23,6,26,0.00
2013-2-13,43.0,35.3,25.3,33.1,27.7,22.6,96,75,54,30.02,29.73,7,1,8,0.01
2013-2-14,46.6,38.4,32.7,35.6,31.5,26.1,98,78,46,30.06,29.76,12,1,12,0.06
2013-2-15,56.7,43.7,31.6,37.6,33.5,29.8,95,70,44,30.07,29.96,16,2,18,0.00
2013-2-16,41.5,36.4,30.9,35.6,28.1,15.4,95,73,52,30.02,29.80,13,2,13,0.04
2013-2-17,32.4,27.5,19.2,15.8,8.1,2.8,57,44,33,30.10,29.74,30,8,30,0.00
2013-2-18,35.8,26.4,17.4,16.7,8.6,3.0,57,47,35,30.32,30.09,23,6,27,0.00
2013-2-19,49.8,39.9,24.6,44.2,32.8,15.6,95,77,51,30.26,29.74,25,4,29,0.23
2013-2-20,37.9,30.8,25.9,27.9,16.4,11.5,67,55,44,30.06,29.80,30,10,31,0.00
2013-2-21,36.0,29.0,24.6,18.1,15.2,11.8,68,56,45,30.35,30.05,28,7,28,0.00
2013-2-22,37.8,31.5,22.8,33.1,24.1,16.0,86,74,61,30.45,30.31,9,1,9,0.00
2013-2-23,45.1,40.4,36.3,44.6,39.5,32.7,98,96,86,30.32,29.85,12,2,12,0.24
2013-2-24,48.4,39.4,33.6,39.7,32.7,23.4,98,78,57,30.04,29.80,21,4,21,0.00
2013-2-25,44.4,37.4,28.9,31.3,27.5,23.4,82,68,54,30.28,30.04,10,2,11,0.00
2013-2-26,44.1,37.0,27.9,37.0,32.4,26.1,95,84,68,30.32,29.88,16,3,18,0.19
2013-2-27,48.9,43.4,38.5,46.6,40.8,37.2,98,91,74,29.92,29.55,19,4,19,0.85
2013-2-28,48.4,43.2,37.0,39.7,35.5,29.8,92,75,58,29.68,29.60,15,3,16,0.00
2013-3-1,46.0,39.6,33.4,33.3,30.6,27.0,89,71,53,29.84,29.67,16,4,16,0.00
2013-3-2,39.9,35.6,31.3,27.3,25.6,23.2,77,67,57,29.85,29.75,13,3,14,0.00
2013-3-3,38.7,33.0,29.7,23.4,21.1,18.3,71,62,51,29.84,29.73,21,5,21,0.00
2013-3-4,42.6,34.6,28.0,23.2,21.1,17.2,70,58,44,29.98,29.83,26,6,26,0.00
2013-3-5,50.0,40.4,31.6,29.7,26.9,22.3,78,59,43,30.07,29.98,15,2,15,0.00
2013-3-6,42.3,40.1,35.2,37.2,33.6,29.3,89,78,65,30.01,29.86,29,7,29,0.01
2013-3-7,40.8,37.5,34.0,36.3,31.7,28.2,94,80,67,30.14,29.96,25,5,25,0.09
2013-3-8,41.9,35.1,31.1,37.9,32.7,29.1,97,91,69,30.25,30.06,8,1,8,0.29
2013-3-9,58.5,43.0,30.4,29.3,24.3,14.0,81,52,18,30.37,30.23,12,1,12,0.03
2013-3-10,49.3,38.4,28.2,38.5,32.9,24.4,97,81,64,30.43,30.35,8,2,11,0.00
2013-3-11,56.8,46.6,34.3,49.1,42.5,32.5,95,86,63,30.38,30.13,11,2,12,0.00
2013-3-12,58.5,53.9,45.3,57.4,50.8,39.0,97,89,74,30.13,29.71,19,4,21,0.82
2013-3-13,50.4,43.4,38.5,39.2,32.2,24.8,91,66,39,29.95,29.86,25,4,25,0.00
2013-3-14,42.6,36.0,31.1,25.3,15.3,8.6,60,44,26,30.03,29.91,26,9,28,0.00
2013-3-15,48.7,39.2,29.1,32.9,22.3,12.0,61,51,40,30.05,29.77,23,5,25,0.00
2013-3-16,45.7,36.4,33.3,33.1,29.0,22.6,94,76,56,29.97,29.82,9,1,11,0.06
2013-3-17,38.3,34.1,30.0,31.8,22.2,17.1,92,63,44,30.36,29.97,13,2,16,0.01
2013-3-18,36.3,32.2,28.0,33.8,23.1,11.7,96,71,50,30.45,30.05,16,3,16,0.27
2013-3-19,49.6,39.9,34.9,38.5,33.7,16.9,98,81,38,30.04,29.75,28,4,29,0.54
2013-3-20,46.6,39.2,32.4,25.3,20.7,17.6,64,48,32,29.95,29.83,24,6,25,0.00
2013-3-21,40.3,34.8,30.4,29.1,20.5,13.6,86,57,37,29.89,29.68,19,3,22,0.00
2013-3-22,42.3,34.5,27.9,24.8,20.2,15.8,71,56,40,29.95,29.80,24,7,24,0.00
2013-3-23,46.6,38.8,31.5,24.1,22.0,19.6,70,52,36,30.00,29.88,29,6,29,0.00
2013-3-24,47.3,39.8,31.5,28.6,23.5,20.1,66,52,39,30.01,29.75,10,2,16,0.00
2013-3-25,39.7,37.5,33.6,36.3,32.4,27.9,96,83,64,29.75,29.52,15,2,15,0.19
2013-3-26,50.7,44.0,35.1,35.4,31.6,26.4,93,64,40,29.93,29.66,15,3,15,0.00
2013-3-27,52.5,43.0,34.0,33.1,29.6,23.4,77,61,33,30.05,29.92,25,4,25,0.00
2013-3-28,50.9,43.7,34.5,32.9,31.4,29.7,83,63,46,30.17,30.02,16,3,16,0.00
2013-3-29,54.9,45.5,36.1,32.2,30.3,27.3,77,57,36,30.21,30.11,19,2,19,0.00
2013-3-30,59.0,47.3,34.7,35.1,28.3,20.5,84,52,23,30.23,30.11,18,2,18,0.00
2013-3-31,58.5,45.6,33.1,45.1,35.9,27.0,97,71,37,30.18,29.73,13,2,15,0.12
2013-4-1,63.0,49.6,38.5,47.8,38.3,13.5,97,69,32,29.98,29.67,30,5,30,0.00
2013-4-2,44.4,38.2,30.9,18.9,15.2,11.7,57,40,27,30.15,29.98,28,6,31,0.00
2013-4-3,46.9,38.7,30.6,18.5,15.2,10.9,55,39,27,30.36,30.14,25,6,25,0.00
2013-4-4,55.2,42.3,30.7,28.4,21.0,14.0,59,44,28,30.45,30.14,13,3,15,0.00
2013-4-5,64.6,49.8,40.8,35.2,27.3,18.5,77,46,19,30.14,29.75,20,3,20,0.00
2013-4-6,54.5,43.7,35.2,29.8,19.3,10.6,67,40,20,30.36,30.06,16,3,16,0.00
2013-4-7,65.8,50.6,37.6,46.0,36.1,27.1,81,60,31,30.36,30.03,19,3,19,0.00
2013-4-8,76.3,61.0,46.2,49.5,46.1,40.6,90,61,31,30.12,30.02,11,2,12,0.00
2013-4-9,83.3,69.0,52.0,55.4,46.7,36.7,88,51,20,30.02,29.93,26,4,27,0.00
2013-4-10,79.2,66.1,56.5,57.9,53.1,47.3,97,65,43,29.99,29.83,19,2,19,0.55
2013-4-11,60.8,56.0,47.5,60.4,52.7,43.0,99,89,73,30.07,29.80,16,3,18,0.02
2013-4-12,49.1,44.2,42.4,43.7,42.5,41.4,98,94,77,30.05,29.75,13,5,18,0.79
2013-4-13,59.4,49.4,38.8,44.1,39.4,34.9,98,72,42,30.03,29.79,19,2,19,0.02
2013-4-14,61.0,52.3,41.4,45.0,36.2,28.8,95,58,32,30.25,30.02,23,3,24,0.00
2013-4-15,56.1,50.0,45.0,43.7,35.9,29.5,86,59,46,30.42,30.25,12,2,12,0.00
2013-4-16,72.7,59.9,47.1,57.6,51.2,43.7,91,75,55,30.42,30.15,17,3,17,0.00
2013-4-17,73.8,63.1,52.9,58.1,45.8,32.2,93,58,23,30.34,30.14,11,2,12,0.01
2013-4-18,57.9,53.1,47.3,57.0,47.7,42.4,97,82,69,30.38,30.13,11,2,11,0.01
2013-4-19,79.3,68.1,57.6,66.0,62.3,56.5,98,83,62,30.13,29.68,22,4,22,0.21
2013-4-20,59.2,53.0,47.7,56.5,37.2,26.8,95,59,33,30.35,29.73,26,7,26,0.13
2013-4-21,55.2,45.7,36.1,31.5,25.8,21.0,66,47,29,30.66,30.35,11,2,11,0.00
2013-4-22,51.3,44.6,33.6,39.9,34.6,30.6,93,69,47,30.70,30.53,20,4,20,0.00
2013-4-23,52.3,45.7,41.5,43.9,39.0,33.8,91,78,67,30.53,30.17,12,2,12,0.00
2013-4-24,76.5,56.9,37.2,55.6,47.3,35.4,95,73,46,30.17,29.84,17,2,17,0.00
2013-4-25,66.4,56.4,46.6,55.8,34.5,25.7,83,46,23,30.31,29.90,28,4,28,0.00
2013-4-26,67.5,55.3,41.5,38.8,33.4,25.2,80,48,21,30.44,30.31,15,2,15,0.00
2013-4-27,71.8,56.8,39.4,36.9,33.3,28.4,81,44,21,30.48,30.32,13,1,13,0.00
2013-4-28,72.9,58.1,42.4,44.8,38.3,29.7,84,51,27,30.36,30.23,18,2,18,0.00
2013-4-29,57.0,54.1,51.6,52.0,50.0,43.7,95,86,61,30.28,30.21,13,1,13,0.20
2013-4-30,63.7,55.4,44.1,50.7,44.0,28.6,96,69,29,30.38,30.25,14,2,15,0.02
2013-5-1,65.5,52.8,37.9,46.6,40.7,29.7,94,67,29,30.53,30.38,13,2,13,0.00
2013-5-2,74.1,57.6,39.9,48.7,43.5,38.5,97,64,33,30.52,30.36,9,1,9,0.00
2013-5-3,64.2,55.4,46.8,48.4,43.7,38.1,88,66,46,30.49,30.40,11,2,11,0.00
2013-5-4,67.3,53.5,41.7,49.6,44.1,40.3,97,73,44,30.42,30.28,11,1,11,0.00
2013-5-5,59.5,51.0,42.3,46.0,42.9,39.2,92,75,58,30.34,30.27,10,1,10,0.00
2013-5-6,65.1,55.1,47.5,54.3,49.0,44.8,93,81,65,30.31,30.20,10,1,10,0.00
2013-5-7,68.7,57.5,46.2,60.8,53.8,45.1,98,88,75,30.22,30.12,9,1,9,0.00
2013-5-8,68.2,60.5,56.5,63.7,58.6,52.9,99,94,82,30.14,29.99,7,1,7,1.39
2013-5-9,68.5,60.4,54.1,60.8,56.2,52.3,99,87,65,30.04,29.94,13,1,15,0.54
2013-5-10,82.9,68.3,54.3,61.7,58.0,52.9,98,73,40,30.05,29.93,11,1,11,0.00
2013-5-11,75.6,65.8,62.8,66.7,63.5,58.6,98,93,64,29.95,29.73,22,1,22,0.76
2013-5-12,67.5,60.9,51.3,62.8,44.0,25.3,96,58,22,30.00,29.71,25,5,25,0.02
2013-5-13,56.1,50.0,43.3,35.2,31.6,26.1,70,50,34,30.17,30.00,20,4,21,0.00
2013-5-14,62.2,50.7,39.4,37.4,31.3,24.1,80,51,25,30.19,30.07,16,2,17,0.00
2013-5-15,78.1,61.9,43.5,60.1,49.8,35.8,82,66,49,30.12,29.73,12,1,12,0.00
2013-5-16,83.5,69.8,57.4,63.9,58.7,47.8,96,71,40,29.88,29.75,15,1,15,0.01
2013-5-17,75.4,65.0,52.5,57.7,44.4,40.6,81,49,30,30.24,29.88,12,1,14,0.00
2013-5-18,65.7,59.6,54.9,57.6,52.7,46.6,87,78,65,30.35,30.24,6,0,6,0.00
2013-5-19,58.6,57.4,55.8,57.9,56.6,54.5,99,97,86,30.35,30.21,7,0,7,0.49
2013-5-20,81.9,68.3,57.6,69.3,63.8,57.2,100,87,64,30.22,30.00,12,1,12,0.00
2013-5-21,88.3,75.9,64.2,72.9,68.5,63.3,99,80,58,30.02,29.88,12,1,12,0.00
2013-5-22,83.5,72.6,61.3,72.1,67.6,59.5,96,85,68,29.97,29.86,8,0,8,0.00
2013-5-23,84.0,74.3,69.4,71.1,69.1,66.6,92,84,61,29.93,29.78,18,2,21,0.07
2013-5-24,69.4,56.2,45.0,66.9,53.7,42.3,98,92,80,30.02,29.73,17,-1,17,0.72
2013-5-25,58.5,51.2,44.6,45.1,41.9,36.5,94,73,49,30.08,29.97,38,4,38,0.08
2013-5-26,69.3,57.9,48.6,41.5,38.5,33.4,74,51,29,30.25,30.04,22,4,25,0.00
2013-5-27,74.8,60.2,42.3,47.5,40.9,34.7,90,54,27,30.31,30.17,15,2,15,0.00
2013-5-28,66.7,58.6,50.5,59.2,53.7,45.9,99,85,55,30.27,30.17,5,0,5,0.42
2013-5-29,90.1,72.6,59.5,72.5,64.6,59.2,100,80,46,30.17,30.04,14,1,14,0.00
2013-5-30,93.6,82.4,72.0,69.8,66.8,62.8,88,62,38,30.18,30.10,13,2,14,0.00
2013-5-31,96.3,83.3,68.9,72.5,66.0,57.7,91,59,31,30.17,30.03,15,1,15,0.00
2013-6-1,93.9,82.3,70.5,71.4,68.5,64.6,89,65,41,30.07,29.93,16,2,16,0.00
2013-6-2,90.0,81.0,72.7,71.8,69.4,65.7,89,69,46,29.96,29.82,16,2,18,0.06
2013-6-3,81.3,72.1,65.8,70.3,68.4,59.4,98,89,63,29.93,29.82,9,1,10,0.82
2013-6-4,76.8,66.6,56.7,60.1,47.4,44.6,82,52,33,30.16,29.93,14,2,14,0.00
2013-6-5,75.0,63.7,49.8,56.7,49.0,41.7,90,60,43,30.25,30.15,9,1,9,0.00
2013-6-6,71.1,62.9,55.4,61.3,58.6,53.8,97,87,59,30.19,30.04,9,1,9,0.20
2013-6-7,64.0,61.7,60.3,63.7,61.2,59.9,99,98,97,30.04,29.63,11,1,13,3.56
2013-6-8,77.4,68.1,57.9,66.0,62.5,57.0,99,83,65,30.10,29.62,13,2,14,0.03
2013-6-9,83.8,72.0,60.3,63.3,60.6,58.3,96,70,45,30.22,30.10,11,1,12,0.00
2013-6-10,71.1,66.9,64.6,67.5,64.9,63.0,100,94,76,30.19,29.85,6,0,6,1.52
2013-6-11,81.5,74.5,67.5,70.5,67.2,62.4,100,80,60,29.85,29.68,20,3,22,0.06
2013-6-12,81.1,72.0,64.6,63.3,58.8,55.0,82,65,44,29.89,29.76,18,3,18,0.00
2013-6-13,68.4,63.4,57.6,65.1,61.0,55.9,97,92,82,29.89,29.47,13,1,13,1.23
2013-6-14,73.8,60.8,54.5,64.0,56.3,52.2,97,86,58,29.94,29.56,10,2,12,0.45
2013-6-15,81.7,69.7,57.0,61.9,57.3,53.6,96,68,39,30.06,29.94,14,2,14,0.00
2013-6-16,84.6,71.9,58.8,67.1,61.3,55.8,95,72,40,30.04,29.83,20,2,21,0.00
2013-6-17,87.3,75.6,65.1,69.4,66.1,60.4,97,74,49,29.96,29.87,12,1,13,0.00
2013-6-18,83.8,70.6,63.9,71.8,66.3,62.8,97,87,63,29.94,29.85,10,0,15,0.16
2013-6-19,78.8,68.6,58.8,63.0,55.3,46.2,97,67,34,30.22,29.92,10,1,11,0.00
2013-6-20,83.7,70.5,56.1,62.2,56.9,51.8,93,64,41,30.32,30.21,10,1,10,0.00
2013-6-21,85.8,72.9,57.9,61.0,55.6,50.0,83,56,40,30.35,30.27,10,1,10,0.00
2013-6-22,87.3,73.7,59.0,66.6,60.5,53.1,90,65,45,30.31,30.16,10,1,10,0.00
2013-6-23,90.9,76.6,64.8,74.8,68.0,60.8,95,76,52,30.24,30.09,14,1,14,0.14
2013-6-24,94.3,79.9,71.8,74.3,70.1,60.3,96,74,44,30.12,30.00,15,2,15,0.00
2013-6-25,92.8,79.8,69.3,76.8,69.7,65.8,91,73,46,30.04,29.86,19,2,19,0.02
2013-6-26,89.1,79.1,73.2,75.2,69.2,65.8,92,73,53,29.90,29.82,12,2,13,0.03
2013-6-27,88.7,78.6,71.8,75.9,72.5,70.3,97,83,62,29.87,29.60,13,1,13,0.46
2013-6-28,88.2,78.0,72.7,72.3,70.8,67.6,95,80,55,29.62,29.51,14,2,15,0.01
2013-6-29,88.0,78.2,68.5,72.9,68.2,64.4,96,74,47,29.74,29.53,11,1,11,0.00
2013-6-30,86.7,77.2,72.0,76.8,73.3,70.7,96,88,71,29.95,29.74,8,0,8,0.06
2013-7-1,77.5,75.2,72.3,76.1,73.3,70.9,98,94,89,30.09,29.93,15,1,15,2.03
2013-7-2,86.9,77.7,73.6,76.6,73.8,72.3,97,88,68,30.23,30.08,11,1,12,0.09
2013-7-3,88.0,77.9,72.1,78.1,73.8,70.3,96,88,67,30.29,30.20,10,1,10,0.09
2013-7-4,91.2,82.5,75.4,76.6,74.7,72.3,97,79,56,30.30,30.19,12,1,13,0.00
2013-7-5,93.4,83.6,74.3,76.3,74.0,70.9,95,74,52,30.26,30.13,14,2,14,0.00
2013-7-6,94.3,85.1,74.8,76.3,74.0,71.6,93,71,51,30.19,30.07,12,2,13,0.00
2013-7-7,94.8,85.3,76.5,77.2,74.0,69.6,85,70,52,30.12,29.98,19,2,19,0.00
2013-7-8,89.8,79.7,71.4,73.2,69.8,66.2,90,73,52,30.11,30.01,11,2,12,0.00
2013-7-9,90.0,79.4,71.2,73.6,70.9,68.2,94,77,55,30.12,30.02,19,1,19,0.03
2013-7-10,88.9,80.6,73.6,78.3,73.8,71.4,95,81,60,30.06,29.85,13,2,17,0.30
2013-7-11,85.8,80.0,74.8,75.2,71.5,64.9,88,76,62,29.97,29.84,11,1,11,0.00
2013-7-12,77.9,72.9,69.3,70.5,67.6,64.4,98,84,72,30.13,29.96,7,1,7,0.77
2013-7-13,82.4,74.3,69.4,77.9,73.2,68.7,99,97,85,30.32,30.12,4,0,4,0.09
2013-7-14,92.3,82.2,74.7,76.8,74.6,72.1,99,80,53,30.38,30.28,12,1,12,0.00
2013-7-15,95.7,85.3,75.4,76.8,74.3,71.4,89,71,50,30.30,30.17,11,2,11,0.00
2013-7-16,94.3,84.6,73.9,73.8,70.7,66.9,88,65,42,30.24,30.17,6,1,9,0.00
2013-7-17,97.2,85.6,73.8,75.6,72.6,68.9,95,68,44,30.23,30.10,9,1,10,0.00
2013-7-18,97.5,88.4,79.0,77.9,74.6,68.7,81,65,43,30.12,30.00,12,1,13,0.00
2013-7-19,97.9,89.3,81.0,81.0,78.0,74.8,88,71,49,30.02,29.84,15,2,16,0.00
2013-7-20,93.4,83.7,75.0,77.9,74.1,70.0,97,74,56,29.88,29.77,23,3,26,0.16
2013-7-21,89.4,79.4,72.7,75.2,70.3,65.3,98,76,51,30.00,29.88,7,0,7,0.00
2013-7-22,88.9,78.2,72.9,77.4,73.9,69.3,98,87,65,29.99,29.84,8,1,8,0.26
2013-7-23,88.0,79.4,72.1,75.9,73.5,70.9,98,83,62,29.83,29.61,14,2,14,0.35
2013-7-24,80.4,76.0,67.6,71.2,66.5,56.5,90,73,56,29.98,29.66,13,2,15,0.00
2013-7-25,67.5,66.3,64.6,61.2,56.8,51.6,83,72,64,30.09,29.96,9,2,9,0.00
2013-7-26,83.8,73.5,65.7,67.1,62.1,59.2,86,69,47,30.09,30.04,10,1,10,0.00
2013-7-27,88.9,74.8,63.5,69.4,65.0,60.6,98,74,41,30.10,29.99,10,1,10,0.00
2013-7-28,83.7,73.1,67.5,73.2,69.0,65.5,98,88,67,30.02,29.94,10,0,10,0.75
2013-7-29,84.6,74.8,67.3,69.8,64.7,55.0,99,74,40,30.16,29.99,13,2,15,0.03
2013-7-30,81.7,71.6,60.1,62.1,59.5,56.5,91,68,46,30.22,30.14,13,1,13,0.00
2013-7-31,82.8,72.4,60.1,65.8,61.5,57.6,96,71,44,30.21,30.08,9,1,10,0.00
2013-8-1,72.5,69.9,67.5,70.0,67.1,64.9,98,91,78,30.09,29.88,9,0,12,1.07
2013-8-2,85.3,75.4,65.7,70.0,65.9,61.3,99,75,46,29.97,29.84,15,2,15,0.00
2013-8-3,77.5,71.8,67.1,69.6,65.6,61.5,90,81,72,29.97,29.91,13,1,13,0.03
2013-8-4,80.8,71.3,60.1,66.0,60.2,53.4,97,71,45,30.03,29.90,16,2,16,0.00
2013-8-5,79.7,69.0,58.6,57.9,53.1,47.8,83,59,38,30.11,30.03,9,1,11,0.00
2013-8-6,82.6,70.6,59.2,62.4,58.2,53.6,95,68,40,30.16,30.08,12,1,12,0.00
2013-8-8,84.7,77.6,73.0,75.9,73.9,71.8,98,89,73,30.09,30.03,9,1,9,0.89
2013-8-9,86.5,79.0,73.4,77.2,74.7,72.1,96,87,71,30.06,29.85,15,2,15,0.05
2013-8-10,83.8,76.2,68.5,74.1,67.8,63.9,96,77,56,30.10,29.91,11,1,12,0.00
2013-8-11,84.4,72.3,59.5,66.9,60.7,53.4,94,69,43,30.17,30.06,10,1,10,0.00
2013-8-12,83.7,74.5,69.4,71.1,69.0,65.1,97,84,56,30.08,29.97,6,0,6,0.10
2013-8-13,82.2,73.6,68.4,72.0,69.7,64.9,99,88,68,29.98,29.75,12,0,13,0.80
2013-8-14,75.6,67.6,59.7,65.3,55.2,50.0,87,65,49,30.11,29.81,20,2,22,0.00
2013-8-15,78.4,66.7,54.5,57.9,53.4,48.4,92,65,39,30.20,30.11,11,1,11,0.00
2013-8-16,82.2,68.8,55.6,59.5,55.8,51.4,97,67,37,30.26,30.17,8,1,8,0.00
2013-8-17,84.6,70.2,56.7,63.3,58.1,55.0,97,69,39,30.32,30.26,7,0,7,0.00
2013-8-18,77.2,69.0,63.5,65.7,61.4,58.6,91,78,55,30.31,30.18,4,0,4,0.00
2013-8-19,78.3,69.7,61.5,67.5,63.5,59.9,96,82,57,30.19,30.09,9,1,9,0.01
2013-8-20,88.2,75.9,64.9,71.1,66.4,63.1,97,75,45,30.18,30.10,9,1,9,0.00
2013-8-21,90.7,78.6,66.7,71.2,65.4,58.8,94,67,37,30.22,30.11,12,1,12,0.00
2013-8-22,78.1,74.2,70.3,74.1,71.4,68.7,97,91,82,30.12,29.92,9,0,13,0.00
2013-8-23,82.2,73.8,66.4,72.0,64.2,54.0,97,74,41,30.15,29.93,9,1,9,0.00
2013-8-24,82.8,70.9,61.2,60.3,56.0,51.1,90,61,39,30.40,30.15,8,1,8,0.00
2013-8-25,82.8,69.8,55.8,60.3,57.3,54.1,97,68,39,30.45,30.29,11,1,12,0.00
2013-8-26,85.1,74.0,65.1,69.8,63.9,57.7,87,71,57,30.30,29.96,14,2,14,0.00
2013-8-27,88.7,78.2,71.1,71.4,69.6,68.5,94,76,54,29.97,29.88,11,1,11,0.00
2013-8-28,83.5,74.8,70.0,73.8,71.5,68.4,97,90,69,29.94,29.88,10,0,10,0.00
2013-8-29,81.1,73.4,69.8,71.8,69.1,65.8,99,87,68,30.09,29.92,5,0,5,0.00
2013-8-30,84.2,75.4,69.1,73.2,69.5,66.4,92,83,63,30.08,29.91,12,2,14,0.00
2013-8-31,88.5,78.9,71.1,75.9,72.6,68.7,94,82,65,29.93,29.83,10,1,10,0.00
2013-9-1,88.2,77.4,72.9,76.6,73.4,70.7,98,88,67,29.90,29.82,10,0,10,0.26
2013-9-2,82.6,75.5,73.0,75.4,73.4,71.4,99,93,76,29.85,29.75,7,0,7,0.25
2013-9-3,82.0,74.7,66.9,72.7,66.8,58.6,99,79,47,29.95,29.76,13,2,13,0.07
2013-9-4,82.0,70.8,61.0,61.7,59.8,57.2,93,70,47,30.06,29.94,17,2,17,0.00
2013-9-5,78.6,68.5,56.7,64.2,56.3,46.2,90,68,36,30.20,29.99,15,1,15,0.00
2013-9-6,73.2,61.6,49.5,51.3,47.0,41.9,88,62,33,30.30,30.19,8,1,8,0.00
2013-9-7,80.1,65.2,49.8,57.4,51.2,47.3,96,65,35,30.19,29.96,12,1,12,0.00
2013-9-8,81.7,71.4,62.4,67.8,58.7,47.1,86,66,40,30.14,29.87,14,2,14,0.00
2013-9-9,75.4,63.8,50.5,61.3,53.7,46.6,88,71,55,30.28,30.13,8,1,9,0.00
2013-9-10,88.7,77.0,67.3,75.2,69.9,61.3,90,79,64,30.22,30.10,12,1,12,0.00
2013-9-11,95.7,83.8,74.5,79.5,74.9,72.3,95,76,56,30.16,30.02,14,1,14,0.00
2013-9-12,88.0,77.9,69.4,76.8,72.3,68.0,97,84,67,30.04,29.73,15,1,17,0.52
2013-9-13,77.2,68.5,58.6,68.5,61.4,51.1,98,80,53,29.92,29.69,18,2,18,0.09
2013-9-14,65.3,58.3,51.6,51.4,48.9,46.6,85,72,56,30.19,29.92,14,2,15,0.00
2013-9-15,74.3,59.6,45.1,55.2,49.2,43.5,95,71,44,30.27,30.13,11,1,11,0.00
2013-9-16,72.7,62.8,56.7,59.9,55.8,50.4,95,79,54,30.29,30.08,9,0,10,0.04
2013-9-17,68.4,56.0,44.1,50.7,42.6,37.4,90,63,38,30.48,30.29,11,1,12,0.00
2013-9-18,74.3,57.5,42.3,53.1,46.1,41.0,97,70,35,30.41,30.24,9,1,9,0.00
2013-9-19,77.7,62.1,47.7,57.0,51.4,46.2,96,72,43,30.25,30.12,11,1,11,0.00
2013-9-20,81.5,65.7,52.0,62.4,57.4,50.5,97,77,46,30.14,30.04,9,1,9,0.00
2013-9-21,81.1,67.5,53.2,68.0,61.2,52.2,98,82,47,30.06,29.71,18,1,18,0.20
2013-9-22,68.9,63.0,54.9,67.3,53.6,43.0,97,74,47,29.98,29.70,18,2,18,0.61
2013-9-23,66.2,56.3,47.1,47.8,44.5,42.3,85,66,49,30.10,29.97,17,2,17,0.00
2013-9-24,74.7,57.4,42.8,50.0,46.0,40.8,94,69,39,30.11,29.93,12,2,13,0.00
2013-9-25,74.5,58.8,45.1,54.1,48.9,43.0,95,73,43,30.01,29.92,7,0,8,0.00
2013-9-26,71.8,59.4,48.9,60.6,55.1,47.8,98,87,65,30.15,29.99,6,0,6,0.00
2013-9-27,71.4,61.2,52.3,57.2,54.5,50.2,96,80,54,30.32,30.15,5,0,5,0.00
2013-9-28,74.5,62.3,53.2,56.1,53.9,51.6,95,76,48,30.37,30.28,6,0,7,0.00
2013-9-29,72.3,59.6,49.3,59.7,53.8,48.2,98,83,59,30.28,30.13,6,0,6,0.00
2013-9-30,77.2,60.8,47.8,57.2,52.5,46.8,98,77,44,30.14,30.01,7,0,8,0.00
2013-10-1,81.3,66.5,53.2,61.9,57.1,51.3,94,74,49,30.06,29.95,10,1,13,0.00
2013-10-2,84.6,70.8,58.5,64.2,60.7,55.4,91,72,49,30.07,29.96,16,2,18,0.00
2013-10-3,80.2,68.4,56.7,61.7,58.7,54.1,98,74,42,30.17,30.07,9,0,9,0.00
2013-10-4,87.1,71.8,59.4,68.5,63.4,57.0,96,77,51,30.12,30.01,11,1,12,0.00
2013-10-5,79.5,70.3,65.5,68.4,65.6,63.9,95,86,67,30.14,30.06,5,0,5,0.00
2013-10-6,69.8,67.6,65.7,68.5,66.3,63.7,98,96,92,30.14,30.06,7,0,7,0.00
2013-10-7,80.2,67.7,58.6,72.7,65.2,52.0,99,92,67,30.07,29.80,24,2,24,0.46
2013-10-8,68.5,57.8,48.4,52.2,48.3,44.8,95,73,44,30.37,30.04,9,1,9,0.00
2013-10-9,62.1,56.2,49.8,51.8,48.4,43.0,87,75,66,30.43,30.32,9,1,9,0.00
2013-10-10,62.4,58.1,52.2,56.5,53.0,48.7,92,83,77,30.32,30.10,10,2,10,0.04
2013-10-11,67.6,62.9,57.0,61.5,58.7,55.6,95,86,72,30.12,30.04,11,2,11,0.06
2013-10-12,71.1,64.9,59.4,58.8,52.4,41.0,80,64,50,30.31,30.09,12,2,12,0.00
2013-10-13,66.6,60.1,54.7,56.3,53.3,50.2,86,78,65,30.43,30.30,9,1,11,0.00
2013-10-14,68.9,56.0,46.0,53.2,49.6,45.0,97,81,56,30.41,30.29,5,0,6,0.00
2013-10-15,70.9,58.5,46.8,57.0,47.5,26.4,98,73,21,30.31,30.16,7,0,7,0.00
2013-10-16,69.3,60.4,50.4,60.6,56.6,48.7,97,88,72,30.17,29.97,5,0,5,0.00
2013-10-17,73.9,66.1,61.2,64.2,62.0,59.7,96,87,66,29.97,29.74,8,1,8,0.02
2013-10-18,67.5,61.1,51.8,64.0,48.6,43.5,91,65,46,30.04,29.73,24,4,24,0.00
2013-10-19,64.8,54.2,42.8,55.6,47.1,40.6,95,78,53,30.04,29.81,9,1,9,0.03
2013-10-20,63.0,54.3,43.5,55.2,42.3,35.8,94,66,37,30.12,29.81,15,3,17,0.00
2013-10-21,68.4,53.3,39.4,46.8,41.1,37.2,95,68,36,30.21,30.04,11,1,11,0.00
2013-10-22,65.7,53.7,43.2,52.2,46.8,39.2,97,78,58,30.04,29.81,16,1,16,0.00
2013-10-23,56.5,47.1,39.0,43.0,39.1,36.3,92,75,54,29.87,29.66,13,1,13,0.00
2013-10-24,54.3,45.1,36.9,37.4,33.3,27.7,90,66,39,30.09,29.83,19,4,19,0.00
2013-10-25,54.5,44.6,36.3,36.0,32.5,30.0,82,64,40,30.30,30.09,17,2,18,0.00
2013-10-26,56.1,44.5,30.0,35.6,32.5,28.6,96,66,40,30.29,29.95,16,1,19,0.00
2013-10-27,58.3,50.3,41.9,37.2,34.7,32.4,71,56,40,30.19,29.92,19,3,19,0.00
2013-10-28,61.7,47.3,32.9,38.1,34.7,30.0,92,65,38,30.36,30.19,16,1,16,0.00
2013-10-29,58.5,47.5,39.7,39.0,36.7,33.1,87,67,45,30.47,30.36,6,1,6,0.00
2013-10-30,60.3,50.8,39.0,52.7,45.4,35.8,90,82,70,30.41,30.23,5,0,7,0.00
2013-10-31,69.3,61.0,51.4,62.4,57.0,49.3,94,87,74,30.28,29.85,13,1,13,0.04
2013-11-1,70.2,65.6,56.1,64.9,60.1,54.5,95,83,62,29.86,29.60,28,2,29,0.17
2013-11-2,68.7,57.5,50.0,54.5,48.8,41.9,97,75,46,29.84,29.67,14,1,14,0.00
2013-11-3,52.2,45.8,34.3,43.9,34.1,22.3,89,65,40,30.51,29.83,13,2,15,0.00
2013-11-4,46.9,37.7,30.4,28.4,22.4,17.8,80,56,33,30.71,30.51,13,1,13,0.00
2013-11-5,57.0,45.9,33.4,44.1,37.7,27.0,87,73,57,30.71,30.53,8,1,9,0.00
2013-11-6,64.8,52.4,38.3,54.5,46.3,37.0,98,81,57,30.55,30.11,11,1,11,0.00
2013-11-7,63.5,54.7,41.2,59.5,50.1,33.3,95,85,64,30.12,29.81,21,2,23,0.09
2013-11-8,49.1,43.3,38.1,37.4,31.4,27.1,80,63,43,30.29,30.00,21,4,24,0.00
2013-11-9,51.3,42.6,32.7,34.9,30.2,27.1,82,63,41,30.36,30.05,14,2,14,0.00
2013-11-10,59.9,48.1,36.9,38.5,34.6,29.7,89,62,39,30.12,29.88,29,5,30,0.00
2013-11-11,54.5,48.3,40.6,36.7,31.4,27.3,61,52,41,30.27,30.02,20,3,20,0.00
2013-11-12,51.4,36.3,30.0,37.8,23.8,18.1,87,61,48,30.37,30.00,22,3,22,0.00
2013-11-13,39.7,32.7,26.2,21.7,17.6,12.7,73,55,33,30.44,30.35,20,2,20,0.00
2013-11-14,53.1,41.6,30.9,23.4,20.4,16.3,68,45,24,30.35,30.23,18,3,19,0.00
2013-11-15,58.3,43.1,29.8,34.7,28.7,22.6,85,59,28,30.32,30.22,7,0,7,0.00
2013-11-16,61.9,49.1,37.9,47.8,42.3,30.4,96,78,53,30.39,30.29,9,1,9,0.03
2013-11-17,62.2,55.5,46.6,59.5,53.8,45.5,97,94,90,30.32,29.83,5,0,6,0.01
2013-11-18,65.5,60.4,51.1,63.5,42.8,28.4,96,56,31,29.85,29.65,25,6,28,0.14
2013-11-19,50.9,43.9,35.6,30.7,26.7,23.2,61,51,44,30.41,29.85,18,5,28,0.00
2013-11-20,45.3,35.1,27.7,23.5,18.3,8.4,79,54,22,30.67,30.41,11,1,11,0.00
2013-11-21,53.1,42.4,27.9,43.2,32.7,19.0,79,69,59,30.67,30.44,11,1,11,0.00
2013-11-22,58.6,52.8,49.1,51.6,48.2,42.4,96,85,76,30.44,29.96,16,2,16,0.08
2013-11-23,53.2,42.4,30.9,49.8,27.7,13.1,94,57,37,30.11,29.96,24,6,24,0.00
2013-11-24,30.9,25.9,23.0,14.0,5.6,2.8,49,41,35,30.46,30.09,31,8,31,0.00
2013-11-25,36.1,28.6,21.0,18.1,13.7,7.7,68,54,43,30.56,30.40,12,2,13,0.00
2013-11-26,52.9,36.9,32.4,52.3,28.9,18.0,99,74,53,30.40,29.78,12,1,13,0.66
2013-11-27,63.5,47.1,34.5,62.4,43.9,21.4,99,89,58,29.84,29.42,25,5,31,1.92
2013-11-28,36.0,31.9,27.9,24.8,16.6,11.7,73,54,37,30.54,29.84,28,6,28,0.00
2013-11-29,39.7,32.3,25.9,23.2,21.2,18.3,83,64,48,30.80,30.53,12,1,14,0.00
2013-11-30,37.0,31.3,22.8,31.5,23.2,14.2,80,72,59,30.81,30.43,8,1,9,0.00
2013-12-1,48.9,40.4,29.1,35.1,31.3,26.2,91,71,57,30.43,30.07,8,1,8,0.00
2013-12-2,51.1,41.9,34.3,35.2,32.4,30.2,91,70,50,30.07,29.93,5,0,5,0.00
2013-12-3,53.8,42.5,33.6,39.7,36.1,31.3,95,80,52,30.06,29.93,11,1,11,0.00
2013-12-4,50.5,43.2,32.7,47.3,39.6,30.7,96,88,75,30.18,30.06,4,0,4,0.00
2013-12-5,59.4,54.0,48.6,57.9,52.6,47.3,98,95,91,30.17,29.98,9,0,9,0.01
2013-12-6,62.6,48.9,38.3,62.1,47.8,37.0,99,96,90,30.22,29.91,13,1,13,0.84
2013-12-7,40.8,36.4,30.9,37.4,29.6,18.7,97,77,58,30.58,30.14,17,3,17,0.16
2013-12-8,32.5,29.6,26.1,30.6,22.3,16.9,96,75,59,30.65,30.41,7,0,8,0.00
2013-12-9,37.6,34.7,31.1,36.9,33.9,30.0,98,97,94,30.41,30.02,12,2,13,0.26
2013-12-10,34.5,32.1,27.1,33.3,30.0,19.9,98,92,74,30.21,29.94,14,2,14,0.00
2013-12-11,33.1,28.3,23.7,21.4,19.2,16.9,79,69,57,30.40,30.21,17,4,17,0.00
2013-12-12,28.2,24.6,20.7,18.1,11.6,6.4,73,58,41,30.43,30.24,11,3,16,0.00
2013-12-13,34.9,27.3,18.3,23.0,15.6,9.1,80,62,49,30.40,30.20,22,4,22,0.00
2013-12-14,31.6,26.6,21.7,30.9,23.1,19.8,97,87,72,30.53,29.80,16,3,16,0.00
2013-12-15,39.9,34.4,29.8,34.0,29.8,22.3,98,84,62,29.91,29.57,24,5,24,0.29
2013-12-16,32.5,26.8,18.3,24.4,14.9,9.7,82,61,46,30.29,29.91,23,5,23,0.00
2013-12-17,30.6,25.8,21.6,29.1,22.8,16.5,95,88,74,30.29,29.99,8,1,8,0.00
2013-12-18,37.2,28.8,21.0,25.9,22.1,18.3,90,77,58,30.25,29.99,22,3,23,0.01
2013-12-19,45.5,34.1,22.6,32.4,27.0,18.7,89,76,55,30.26,30.09,13,1,13,0.03
2013-12-20,53.1,41.4,30.6,40.6,34.1,29.1,95,77,52,30.17,30.02,9,0,9,0.00
2013-12-21,64.2,51.4,38.7,56.3,47.2,37.0,98,86,69,30.06,29.95,9,1,9,0.00
2013-12-22,70.3,65.9,60.4,64.4,60.7,56.3,92,83,75,30.01,29.85,24,4,24,0.02
2013-12-23,62.1,55.7,41.2,61.0,53.4,32.0,98,92,70,30.22,29.93,18,2,18,0.64
2013-12-24,41.0,35.3,26.1,31.8,23.8,12.0,92,63,48,30.42,30.15,23,4,23,0.00
2013-12-25,28.9,24.6,18.5,16.9,11.2,8.6,66,56,46,30.59,30.42,16,2,16,0.00
2013-12-26,36.7,30.2,23.4,29.1,24.1,16.9,85,78,66,30.50,30.23,20,2,20,0.00
2013-12-27,42.3,32.6,24.8,24.6,22.7,19.8,84,68,45,30.43,30.32,16,2,17,0.00
2013-12-28,56.8,40.6,24.1,32.2,28.1,21.2,92,64,37,30.35,30.13,23,2,23,0.00
2013-12-29,45.9,41.9,37.4,45.3,37.0,28.9,98,83,64,30.14,29.46,17,2,17,1.25
2013-12-30,46.0,36.3,23.2,39.6,28.9,12.4,96,75,58,30.25,29.76,21,2,21,0.00
2013-12-31,31.8,26.1,19.0,27.3,15.8,11.3,86,65,51,30.36,30.12,20,3,20,0.00
2014-1-1,34.0,29.2,23.0,24.4,18.0,11.8,71,63,56,30.47,30.29,10,1,11,0.00
2014-1-2,33.3,26.8,17.2,25.9,22.7,15.6,94,85,68,30.29,29.71,16,4,16,0.00